Flag for Germany Weather past 2 weeks in Mosbach, Baden-Württemberg, Germany

Now
61 °F

Clear.


Feels Like: 61 °F
Forecast: 50 / 75 °F
Wind: 2 mph from East

Location: Oehringen

Current Time: Sep 16, 2014 at 10:02:17 PM

Latest Report: Sep 16, 2014 at 9:00 PM


Visibility: 5 mi

Pressure: 29.97 "Hg

Humidity: 85%

Dew point: 57 °F

Location of MosbachLocation

Historic Weather in Mosbach — Graph

°F

Mosbach temperature yesterday

Maximum temperature yesterday: 67 °F (at 3:00 PM)
Minimum temperature yesterday: 58 °F (at 12:00 AM)
Average temperature yesterday: 62 °F

Past Weeks' High & Low Weather Summary

 TemperatureHumidityPressure
High79 °F (Sep 8, 5:00 PM)99% (Sep 12, 3:00 PM)30.18 "Hg (Sep 12, 3:00 PM)
Low49 °F (Sep 11, 7:00 AM)45% (Sep 10, 4:00 PM)29.86 "Hg (Sep 6, 6:00 PM)
Average61 °F83%30.03 "Hg
* Reported Sep 1 9:00 PM — Sep 16 9:00 PM, Mosbach, Weather by CustomWeather, © 2014

Note: Actual official high and low records may vary slightly from our data, if they occured in-between our weather recording intervals... More about our weather records

Advertising

Mosbach weather history for previous 24 hours

 ConditionsComfort  
Time TempWeatherWind HumidityBarometerVisibility
9:00 PM
Sep 16
61 °FClear.2 mph85%29.97 "Hg5 mi
8:00 PM64 °FClear.3 mph79%29.96 "Hg6 mi
7:00 PM68 °FSunny.3 mph71%29.96 "Hg7 mi
6:00 PM71 °FSunny.5 mph64%29.95 "Hg9 mi
5:00 PM73 °FSunny.3 mph56%29.94 "Hg12 mi
4:00 PM73 °FSunny.3 mph56%29.95 "Hg11 mi
3:00 PM72 °FSunny.3 mph62%29.96 "Hg11 mi
2:00 PM70 °FSunny.3 mph66%29.98 "Hg7 mi
1:00 PM68 °FPassing clouds.3 mph71%29.99 "Hg7 mi
12:00 PM65 °FSunny.5 mph74%30.00 "Hg4 mi
11:00 AM64 °FSunny.5 mph78%30.01 "Hg5 mi
10:00 AM63 °FSunny.2 mph76%30.01 "Hg4 mi
9:00 AM60 °FFog.1 mph81%30.00 "Hg3 mi
8:00 AM55 °FFog.2 mph94%30.01 "Hg2 mi
7:00 AM55 °FFog.1 mph95%30.01 "Hg2 mi
6:00 AM55 °FFog.2 mph94%30.00 "Hg2 mi
5:00 AM54 °FFog.2 mph94%30.00 "Hg3 mi
4:00 AM54 °FFog.2 mph94%30.01 "Hg3 mi
3:00 AM55 °FFog.2 mph93%30.01 "Hg3 mi
2:00 AM56 °FFog.3 mph92%30.01 "Hg4 mi
1:00 AM56 °FFog.1 mph90%30.01 "Hg4 mi
12:00 AM57 °FClear.2 mph89%30.01 "Hg5 mi
11:00 PM
Sep 15
58 °FPassing clouds.2 mph89%30.01 "Hg5 mi
10:00 PM59 °FClear.2 mph86%30.00 "Hg6 mi
Weather by CustomWeather, © 2014

See weather overviewHow to use our weather pages